period_start,C,m1,H,J0,J1,J2,J3,J4,J5,JA,JB,JC,JD,JJ,JK,JN,#
2015-05-05 00:04:13,0.01,0.46,0.00,23.41,27.07,29.66,4.99,27.00,1032.75,2034.99,3237.31,3188.08,3462.00,350.32,353.08,17.86,0000 0000 0000 0000 000000
2015-05-05 00:09:15,0.00,0.46,0.00,23.41,27.07,29.68,4.90,26.77,1032.77,2034.98,3237.05,3188.03,3462.00,350.31,352.91,17.89,0000 0000 0000 0000 000000
2015-05-05 00:14:16,0.00,0.46,0.00,23.21,27.07,29.77,4.89,26.72,1032.76,2034.99,3237.02,3188.01,3462.00,350.46,353.27,17.92,0000 0000 0000 0000 000000
2015-05-05 00:19:18,0.00,0.46,0.00,23.15,27.07,29.83,4.79,26.80,1032.80,2034.98,3237.00,3188.00,3461.96,349.78,353.01,17.95,0000 0000 0000 0000 000000
2015-05-05 00:24:19,-0.00,0.46,0.00,23.10,27.07,29.86,4.81,26.86,1032.90,2034.96,3236.96,3187.98,3461.87,350.03,353.17,17.98,0000 0000 0000 0000 000000
2015-05-05 00:29:21,0.00,0.46,0.00,23.04,27.07,29.84,4.84,26.87,1032.87,2034.97,3236.94,3187.99,3461.94,349.61,352.80,18.01,0000 0000 0000 0000 000000
2015-05-05 00:34:22,0.00,0.47,0.00,23.20,27.07,29.81,4.83,26.81,1032.82,2034.98,3236.93,3187.99,3461.92,349.77,352.95,18.03,0000 0000 0000 0000 000000
2015-05-05 00:39:23,0.03,0.47,0.00,23.43,27.07,29.71,4.85,27.00,1032.87,2034.98,3236.56,3187.95,3461.54,349.85,352.80,18.06,0000 0000 0000 0000 000000
2015-05-05 00:44:24,0.02,0.47,0.00,23.50,27.09,29.76,4.82,26.84,1032.82,2034.98,3236.26,3187.88,3461.16,350.24,352.99,18.09,0000 0000 0000 0000 000000
2015-05-05 00:49:26,0.01,0.47,0.00,23.50,27.10,29.84,4.79,26.80,1032.79,2034.97,3236.04,3187.66,3461.06,350.39,353.14,18.12,0000 0000 0000 0000 000000
2015-05-05 00:54:27,0.02,0.47,0.00,23.58,27.11,29.80,4.78,26.90,1032.77,2034.97,3236.00,3187.34,3461.02,349.98,352.65,18.15,0000 0000 0000 0000 000000
2015-05-05 00:59:28,0.01,0.47,0.00,23.46,27.12,29.85,4.85,26.92,1032.77,2034.98,3236.00,3187.06,3461.00,350.04,352.63,18.18,0000 0000 0000 0000 000000
2015-05-05 01:04:29,-0.00,0.47,0.00,23.35,27.12,29.90,4.89,26.92,1032.86,2034.96,3235.97,3187.02,3461.00,349.76,352.64,18.21,0000 0000 0000 0000 000000
2015-05-05 01:09:31,0.01,0.47,0.00,23.32,27.12,29.96,4.87,26.88,1032.81,2034.94,3235.74,3187.00,3460.99,349.84,352.81,18.24,0000 0000 0000 0000 000000
2015-05-05 01:14:32,0.01,0.47,0.00,23.25,27.13,29.99,4.85,26.85,1032.80,2034.92,3235.30,3187.00,3460.98,349.87,353.06,18.27,0000 0000 0000 0000 000000
2015-05-05 01:19:33,0.00,0.47,0.00,23.20,27.13,29.98,4.88,26.81,1032.80,2034.89,3235.06,3186.99,3460.93,350.22,353.16,18.30,0000 0000 0000 0000 000000
2015-05-05 01:24:35,0.01,0.47,0.00,23.18,27.14,29.97,4.86,26.88,1032.76,2034.95,3235.01,3186.98,3460.88,349.86,352.78,18.33,0000 0000 0000 0000 000000
2015-05-05 01:29:36,0.00,0.47,0.00,23.14,27.14,29.98,4.84,26.78,1032.77,2034.95,3235.00,3186.95,3460.67,349.87,352.76,18.36,0000 0000 0000 0000 000000
2015-05-05 01:34:37,0.01,0.47,0.00,23.12,27.15,29.95,4.87,26.82,1032.77,2034.92,3235.00,3186.89,3460.30,350.05,353.02,18.39,0000 0000 0000 0000 000000
2015-05-05 01:39:38,0.01,0.47,0.00,23.26,27.15,29.95,4.76,26.66,1032.78,2034.81,3234.98,3186.41,3460.10,349.85,352.76,18.42,0000 0000 0000 0000 000000
2015-05-05 01:44:40,0.02,0.47,0.00,23.51,27.15,29.86,4.82,26.76,1032.80,2034.94,3234.99,3186.47,3460.05,349.88,352.70,18.44,0000 0000 0000 0000 000000
2015-05-05 01:49:41,0.01,0.47,0.00,23.67,27.17,29.92,4.93,26.77,1032.79,2034.90,3234.98,3186.08,3460.01,350.48,352.70,18.47,0000 0000 0000 0000 000000
2015-05-05 01:54:42,-0.03,0.47,0.00,23.75,27.18,29.92,4.89,26.83,1032.76,2034.72,3234.61,3186.01,3460.00,350.57,352.62,18.50,0000 0000 0000 0000 000000
2015-05-05 01:59:44,-0.02,0.47,0.00,23.58,27.20,29.99,4.88,26.80,1032.78,2034.50,3234.10,3186.00,3459.97,349.88,352.83,18.53,0000 0000 0000 0000 000000
2015-05-05 02:04:45,-0.03,0.47,0.00,23.54,27.20,29.99,4.87,26.71,1032.76,2034.19,3234.00,3185.98,3459.79,349.89,352.31,18.56,0000 0000 0000 0000 000000
2015-05-05 02:09:47,0.01,0.47,0.00,23.53,27.21,30.00,4.91,26.84,1032.81,2034.12,3233.99,3185.93,3459.30,350.60,352.82,18.59,0000 0000 0000 0000 000000
2015-05-05 02:14:48,0.03,0.47,0.00,23.50,27.22,30.02,4.84,26.80,1032.90,2034.07,3233.87,3185.50,3459.03,349.90,352.56,18.62,0000 0000 0000 0000 000000
2015-05-05 02:19:49,0.01,0.47,0.00,23.47,27.22,30.05,4.75,26.78,1032.87,2034.06,3233.55,3185.20,3459.01,349.92,352.81,18.65,0000 0000 0000 0000 000000
2015-05-05 02:24:50,0.02,0.47,0.00,23.45,27.22,30.06,4.74,26.73,1032.85,2034.07,3233.25,3185.10,3459.00,349.55,352.36,18.68,0000 0000 0000 0000 000000
2015-05-05 02:29:52,0.00,0.47,0.00,23.46,27.22,30.07,4.82,26.74,1033.09,2034.03,3233.03,3185.01,3459.00,350.13,353.17,18.71,0000 0000 0000 0000 000000
2015-05-05 02:34:53,0.00,0.47,0.00,23.45,27.23,30.06,4.95,26.75,1033.05,2034.03,3233.00,3185.00,3458.99,350.32,353.16,18.74,0000 0000 0000 0000 000000
2015-05-05 02:39:54,0.00,0.47,0.00,23.45,27.24,30.08,4.88,26.77,1033.07,2034.01,3232.97,3185.00,3458.88,349.78,352.76,18.77,0000 0000 0000 0000 000000
2015-05-05 02:44:55,0.00,0.47,0.00,23.47,27.25,30.08,4.88,26.81,1033.20,2034.02,3232.95,3184.97,3458.83,349.70,352.50,18.80,0000 0000 0000 0000 000000
2015-05-05 02:49:56,0.02,0.47,0.00,23.47,27.25,30.07,4.90,26.77,1033.22,2034.02,3232.59,3184.95,3458.44,350.59,353.50,18.83,0000 0000 0000 0000 000000
2015-05-05 02:54:57,0.01,0.47,0.00,23.47,27.25,30.07,4.83,26.75,1033.21,2034.02,3232.18,3184.92,3458.25,349.42,352.34,18.85,0000 0000 0000 0000 000000
2015-05-05 02:59:58,0.03,0.47,0.00,23.50,27.25,30.05,4.81,26.71,1033.21,2034.02,3232.02,3184.44,3458.05,350.00,352.66,18.88,0000 0000 0000 0000 000000
2015-05-05 03:05:00,0.01,0.47,0.00,23.52,27.25,30.07,4.81,26.78,1033.22,2034.01,3232.01,3184.20,3458.00,350.14,352.76,18.91,0000 0000 0000 0000 000000
2015-05-05 03:10:01,-0.00,0.47,0.00,23.52,27.25,30.07,4.80,26.73,1033.22,2034.02,3232.00,3184.19,3458.01,349.38,352.02,18.94,0000 0000 0000 0000 000000
2015-05-05 03:15:02,0.01,0.47,0.00,23.54,27.26,30.07,4.98,26.82,1033.22,2034.04,3231.99,3184.03,3458.00,350.45,353.06,18.97,0000 0000 0000 0000 000000
2015-05-05 03:20:04,-0.00,0.47,0.00,23.58,27.27,30.05,4.92,26.82,1033.22,2034.03,3231.97,3184.02,3458.00,350.60,353.27,19.00,0000 0000 0000 0000 000000
2015-05-05 03:25:05,0.00,0.47,0.00,23.60,27.27,30.07,4.89,26.77,1033.22,2034.02,3231.76,3184.00,3457.99,350.46,353.08,19.03,0000 0000 0000 0000 000000
2015-05-05 03:30:06,0.01,0.47,0.00,23.64,27.27,30.07,4.77,26.70,1033.22,2034.02,3231.24,3184.00,3457.97,349.76,352.53,19.06,0000 0000 0000 0000 000000
2015-05-05 03:35:07,0.00,0.47,0.00,23.67,27.27,30.05,4.82,26.75,1033.22,2034.01,3231.07,3183.99,3457.90,349.79,352.46,19.09,0000 0000 0000 0000 000000
2015-05-05 03:40:08,0.02,0.47,0.00,23.70,27.28,30.04,4.81,26.73,1033.22,2034.01,3231.00,3183.97,3457.28,350.00,352.50,19.12,0000 0000 0000 0000 000000
2015-05-05 03:45:10,0.00,0.47,0.00,23.71,27.30,30.04,4.86,26.74,1033.23,2034.01,3230.99,3183.93,3457.08,350.27,352.78,19.15,0000 0000 0000 0000 000000
2015-05-05 03:50:11,0.03,0.48,0.00,23.73,27.30,30.04,4.78,26.71,1033.23,2034.00,3230.97,3183.52,3457.01,349.65,352.19,19.18,0000 0000 0000 0000 000000
2015-05-05 03:55:12,0.01,0.48,0.00,23.77,27.30,30.04,4.88,26.77,1033.23,2034.00,3230.95,3183.22,3457.00,349.97,352.44,19.21,0000 0000 0000 0000 000000
2015-05-05 04:00:13,0.02,0.48,0.00,23.79,27.32,29.99,4.76,26.73,1033.24,2034.00,3230.39,3183.03,3457.00,349.90,352.63,19.24,0000 0000 0000 0000 000000
2015-05-05 04:05:15,0.00,0.48,0.00,23.81,27.32,30.01,4.78,26.74,1033.23,2034.00,3230.05,3183.00,3456.97,350.01,352.51,19.26,0000 0000 0000 0000 000000
2015-05-05 04:10:16,0.00,0.48,0.00,23.86,27.33,29.99,4.76,26.66,1033.24,2034.00,3230.00,3183.00,3456.93,349.94,352.40,19.29,0000 0000 0000 0000 000000
2015-05-05 04:15:17,0.01,0.48,0.00,23.90,27.35,29.97,4.93,26.75,1033.30,2034.00,3229.99,3182.98,3456.48,350.33,352.67,19.32,0000 0000 0000 0000 000000
2015-05-05 04:20:18,0.01,0.48,0.00,23.91,27.35,30.00,4.99,26.78,1033.29,2034.00,3229.96,3182.94,3456.09,350.44,352.73,19.35,0000 0000 0000 0000 000000
2015-05-05 04:25:19,0.03,0.48,0.00,23.93,27.36,29.99,4.93,26.70,1033.27,2034.00,3229.75,3182.66,3456.01,349.93,352.07,19.38,0000 0000 0000 0000 000000
2015-05-05 04:30:21,0.03,0.48,0.00,23.97,27.37,29.98,4.88,26.69,1033.29,2034.00,3229.23,3182.24,3456.00,349.97,352.21,19.41,0000 0000 0000 0000 000000
2015-05-05 04:35:22,0.00,0.48,0.00,23.98,27.37,29.98,4.87,26.73,1033.24,2033.99,3229.02,3182.01,3456.00,349.63,351.66,19.44,0000 0000 0000 0000 000000
2015-05-05 04:40:23,0.00,0.48,0.00,24.01,27.40,29.99,4.84,26.78,1033.25,2033.99,3229.00,3182.01,3455.99,350.20,352.02,19.47,0000 0000 0000 0000 000000
2015-05-05 04:45:24,0.00,0.48,0.00,24.03,27.40,30.01,4.86,26.79,1033.25,2033.99,3229.00,3182.00,3455.97,350.40,352.70,19.50,0000 0000 0000 0000 000000
2015-05-05 04:50:26,0.00,0.48,0.00,24.06,27.41,30.00,4.78,26.68,1033.24,2033.99,3228.96,3181.98,3455.75,350.08,352.12,19.53,0000 0000 0000 0000 000000
2015-05-05 04:55:27,0.02,0.48,0.00,24.10,27.42,29.98,4.85,26.77,1033.26,2033.99,3228.74,3181.97,3455.27,350.28,352.18,19.56,0000 0000 0000 0000 000000
2015-05-05 05:00:29,0.03,0.48,0.00,24.12,27.43,30.01,4.83,26.77,1033.35,2033.98,3228.17,3181.72,3455.05,350.28,352.51,19.59,0000 0000 0000 0000 000000
2015-05-05 05:05:30,0.02,0.48,0.00,24.13,27.45,30.01,4.81,26.71,1033.32,2033.97,3228.01,3181.16,3455.00,350.23,352.28,19.62,0000 0000 0000 0000 000000
2015-05-05 05:10:31,0.00,0.48,0.00,24.17,27.45,30.01,4.85,26.75,1033.34,2033.97,3228.00,3181.04,3455.00,350.08,351.98,19.65,0000 0000 0000 0000 000000
2015-05-05 05:15:32,-0.00,0.48,0.00,24.21,27.47,30.02,4.80,26.69,1033.35,2033.96,3227.98,3181.01,3454.97,350.33,352.25,19.68,0000 0000 0000 0000 000000
2015-05-05 05:20:34,0.00,0.48,0.00,24.23,27.47,30.02,4.75,26.73,1033.28,2033.95,3227.91,3181.00,3454.92,349.47,351.80,19.70,0000 0000 0000 0000 000000
2015-05-05 05:25:35,0.04,0.48,0.00,24.25,27.49,30.02,4.79,26.85,1033.27,2033.95,3227.35,3180.98,3454.53,349.04,351.00,19.73,0000 0000 0000 0000 000000
2015-05-05 05:30:36,-0.00,0.48,0.00,24.27,27.50,30.03,4.92,26.80,1033.25,2033.87,3227.03,3180.90,3454.05,350.48,352.39,19.76,0000 0000 0000 0000 000000
2015-05-05 05:35:37,-0.00,0.48,0.00,24.31,27.51,30.03,4.70,26.81,1033.24,2033.80,3227.00,3180.72,3454.01,349.16,351.10,19.79,0000 0000 0000 0000 000000
2015-05-05 05:40:38,-0.02,0.48,0.00,24.34,27.52,30.04,4.85,26.77,1033.24,2033.44,3226.98,3180.09,3454.00,350.18,352.14,19.82,0000 0000 0000 0000 000000
2015-05-05 05:45:39,-0.02,0.48,0.00,24.24,27.53,30.26,4.72,26.73,1033.24,2033.33,3226.87,3180.01,3454.00,349.58,351.48,19.85,0000 0000 0000 0000 000000
2015-05-05 05:50:41,0.02,0.48,0.00,24.12,27.55,30.34,4.81,26.73,1033.23,2033.35,3226.71,3180.00,3453.96,349.79,351.79,19.88,0000 0000 0000 0000 000000
2015-05-05 05:55:42,0.02,0.48,0.00,24.11,27.55,30.32,4.80,26.84,1033.23,2033.42,3226.42,3180.00,3453.86,350.37,352.58,19.91,0000 0000 0000 0000 000000
2015-05-05 06:00:43,-0.02,0.48,0.00,24.09,27.56,30.29,4.78,26.78,1033.22,2033.16,3226.03,3179.98,3453.29,350.19,352.43,19.94,0000 0000 0000 0000 000000
2015-05-05 06:05:44,0.01,0.48,0.00,24.18,27.57,30.28,4.78,26.80,1033.23,2033.19,3226.01,3179.94,3453.09,350.39,352.43,19.97,0000 0000 0000 0000 000000
2015-05-05 06:10:46,0.01,0.48,0.00,24.23,27.60,30.09,4.88,26.72,1033.23,2033.06,3225.98,3179.30,3453.00,350.28,352.27,20.00,0000 0000 0000 0000 000000
2015-05-05 06:15:47,0.03,0.48,0.00,24.23,27.60,29.99,4.77,26.72,1033.22,2033.08,3225.50,3179.03,3452.98,349.87,351.62,20.03,0000 0000 0000 0000 000000
2015-05-05 06:20:48,0.01,0.48,0.00,24.17,27.62,30.00,4.72,26.67,1033.23,2033.05,3225.02,3179.00,3452.59,349.56,351.40,20.06,0000 0000 0000 0000 000000
2015-05-05 06:25:49,0.03,0.48,0.00,24.07,27.62,30.12,4.80,26.79,1033.22,2033.02,3224.80,3178.87,3452.09,349.62,351.62,20.08,0000 0000 0000 0000 000000
2015-05-05 06:30:50,0.05,0.49,0.00,24.00,27.65,30.23,4.82,26.61,1033.23,2033.02,3224.05,3178.09,3451.97,349.94,352.22,20.11,0000 0000 0000 0000 000000
2015-05-05 06:35:52,0.07,0.49,0.00,23.93,27.65,30.40,4.95,26.77,1033.24,2033.01,3223.29,3177.74,3451.16,350.30,352.51,20.14,0000 0000 0000 0000 000000
2015-05-05 06:40:53,0.07,0.49,0.00,23.87,27.66,30.43,4.89,26.53,1033.25,2033.01,3222.51,3177.03,3450.50,350.70,352.78,20.17,0000 0000 0000 0000 000000
2015-05-05 06:45:54,0.05,0.49,0.00,23.84,27.67,30.43,4.77,26.50,1033.23,2033.00,3221.78,3176.64,3449.94,350.06,352.56,20.20,0000 0000 0000 0000 000000
2015-05-05 06:50:55,0.05,0.49,0.00,23.83,27.67,30.43,4.88,26.48,1033.23,2033.01,3221.00,3176.01,3449.13,350.26,352.67,20.23,0000 0000 0000 0000 000000
2015-05-05 06:55:56,0.08,0.50,0.00,23.81,27.68,30.45,4.81,26.45,1033.24,2033.01,3220.17,3175.40,3448.74,349.79,352.21,20.26,0000 0000 0000 0000 000000
2015-05-05 07:00:57,0.04,0.50,0.00,23.78,27.70,30.45,4.89,26.48,1033.24,2033.00,3219.39,3174.94,3448.04,350.16,352.67,20.29,0000 0000 0000 0000 000000
2015-05-05 07:05:58,0.08,0.50,0.00,23.72,27.70,30.46,4.77,26.42,1033.23,2033.01,3218.49,3174.14,3447.46,350.01,352.58,20.32,0000 0000 0000 0000 000000
2015-05-05 07:11:00,0.09,0.50,0.00,23.69,27.70,30.44,4.85,26.41,1033.23,2033.00,3217.28,3173.39,3446.49,350.10,352.64,20.35,0000 0000 0000 0000 000000
2015-05-05 07:16:01,0.12,0.51,0.00,23.75,27.70,30.47,4.78,26.51,1033.24,2033.00,3215.58,3172.12,3445.19,349.76,352.17,20.38,0000 0000 0000 0000 000000
2015-05-05 07:21:02,0.10,0.51,0.00,23.82,27.70,30.49,4.89,26.53,1033.26,2033.00,3214.34,3171.12,3444.12,350.32,352.57,20.41,0000 0000 0000 0000 000000
2015-05-05 07:26:04,0.15,0.51,0.00,23.90,27.72,30.50,4.90,26.56,1033.39,2033.00,3212.62,3169.87,3442.81,350.33,352.81,20.44,0000 0000 0000 0000 000000
2015-05-05 07:31:05,0.11,0.52,0.00,23.99,27.72,30.50,4.79,26.40,1033.33,2033.00,3211.03,3168.77,3441.61,350.19,352.41,20.47,0000 0000 0000 0000 000000
2015-05-05 07:36:06,0.06,0.52,0.00,24.08,27.72,30.49,4.85,26.50,1033.37,2032.99,3210.03,3168.03,3440.80,350.21,352.35,20.49,0000 0000 0000 0000 000000
2015-05-05 07:41:08,0.09,0.52,0.00,24.17,27.72,30.33,4.84,26.61,1033.29,2032.99,3208.98,3167.36,3440.02,349.95,351.87,20.52,0000 0000 0000 0000 000000
2015-05-05 07:46:09,0.12,0.52,0.00,24.25,27.72,30.35,4.74,26.46,1033.36,2032.99,3207.61,3166.34,3439.12,350.07,351.74,20.55,0000 0000 0000 0000 000000
2015-05-05 07:51:10,0.10,0.53,0.00,24.34,27.72,30.48,4.86,26.65,1033.31,2032.99,3206.28,3165.57,3438.15,350.07,351.87,20.58,0000 0000 0000 0000 000000
2015-05-05 07:56:11,0.14,0.53,0.00,24.43,27.72,30.50,4.80,26.52,1033.30,2032.99,3204.48,3164.46,3436.92,350.13,351.77,20.61,0000 0000 0000 0000 000000
2015-05-05 08:01:13,0.13,0.54,0.00,24.51,27.72,30.52,4.85,26.67,1033.43,2032.99,3202.43,3163.22,3435.70,350.12,351.50,20.64,0000 0000 0000 0000 000000
2015-05-05 08:06:14,0.05,0.54,0.00,24.58,27.72,30.51,4.77,26.79,1033.52,2032.99,3201.40,3162.74,3434.98,349.76,351.43,20.67,0000 0000 0000 0000 000000
2015-05-05 08:11:15,0.09,0.54,0.00,24.63,27.72,30.50,4.85,26.77,1033.56,2032.99,3199.93,3161.94,3434.12,349.61,351.15,20.70,0000 0000 0000 0000 000000
2015-05-05 08:16:16,0.09,0.54,0.00,24.68,27.72,30.47,4.85,26.64,1033.53,2032.99,3198.75,3161.09,3433.35,350.25,351.73,20.73,0000 0000 0000 0000 000000
2015-05-05 08:21:18,0.09,0.55,0.00,24.70,27.70,30.47,4.86,26.75,1033.46,2032.99,3197.48,3160.45,3432.73,350.19,351.70,20.76,0000 0000 0000 0000 000000
2015-05-05 08:26:19,0.13,0.55,0.00,24.67,27.70,30.46,4.86,26.68,1033.32,2032.99,3195.54,3159.49,3431.64,350.14,351.37,20.79,0000 0000 0000 0000 000000
2015-05-05 08:31:20,0.18,0.56,0.00,24.69,27.70,30.45,4.71,26.61,1033.24,2032.99,3192.86,3157.92,3430.02,350.03,351.39,20.82,0000 0000 0000 0000 000000
2015-05-05 08:36:22,0.18,0.56,0.00,24.62,27.70,30.37,4.80,26.69,1033.24,2032.99,3190.14,3156.48,3428.42,350.07,351.42,20.85,0000 0000 0000 0000 000000
2015-05-05 08:41:23,0.15,0.57,0.00,24.50,27.68,30.31,4.87,26.70,1033.23,2032.99,3187.78,3155.06,3426.92,350.38,351.87,20.88,0000 0000 0000 0000 000000
2015-05-05 08:46:24,0.19,0.57,0.00,24.46,27.67,30.21,4.81,26.68,1033.24,2032.99,3185.29,3153.59,3425.36,349.91,351.60,20.91,0000 0000 0000 0000 000000
2015-05-05 08:51:25,0.19,0.58,0.00,24.40,27.66,30.25,4.81,26.69,1033.23,2032.99,3182.61,3151.87,3423.65,350.16,351.87,20.93,0000 0000 0000 0000 000000
2015-05-05 08:56:27,0.19,0.58,0.00,24.15,27.65,30.37,4.84,26.71,1033.23,2033.00,3179.97,3150.30,3421.86,349.94,351.71,20.96,0000 0000 0000 0000 000000
2015-05-05 09:01:28,0.14,0.59,0.00,23.99,27.63,30.36,4.91,26.63,1033.23,2033.00,3177.79,3148.96,3420.36,350.07,352.32,20.99,0000 0000 0000 0000 000000
2015-05-05 09:06:29,0.11,0.59,0.00,23.88,27.61,30.32,4.78,26.67,1033.23,2033.00,3176.14,3148.00,3419.40,349.90,352.12,21.02,0000 0000 0000 0000 000000
2015-05-05 09:11:31,0.12,0.60,0.00,23.75,27.59,30.28,4.79,26.57,1033.23,2033.00,3174.32,3147.00,3418.26,349.73,352.26,21.05,0000 0000 0000 0000 000000
2015-05-05 09:16:32,0.12,0.60,0.00,23.83,27.57,30.23,4.79,26.73,1033.24,2033.00,3172.69,3146.09,3417.25,349.71,351.88,21.08,0000 0000 0000 0000 000000
2015-05-05 09:21:33,0.10,0.60,0.00,24.13,27.56,30.21,4.81,26.62,1033.22,2033.01,3171.45,3145.29,3416.40,350.40,352.48,21.11,0000 0000 0000 0000 000000
2015-05-05 09:26:35,0.04,0.60,0.00,24.27,27.55,30.19,4.85,26.68,1033.22,2033.02,3170.60,3144.85,3415.92,350.15,351.87,21.14,0000 0000 0000 0000 000000
2015-05-05 09:31:36,0.08,0.61,0.00,24.08,27.55,30.25,4.79,26.63,1033.22,2033.02,3169.50,3144.07,3415.12,349.85,351.81,21.17,0000 0000 0000 0000 000000
2015-05-05 09:36:37,0.11,0.61,0.00,23.93,27.52,30.24,4.90,26.72,1033.22,2033.02,3167.92,3143.29,3414.25,350.38,352.56,21.20,0000 0000 0000 0000 000000
2015-05-05 09:41:38,0.05,0.61,0.00,23.85,27.52,30.31,4.82,26.78,1033.22,2033.01,3166.89,3142.85,3413.56,350.04,352.04,21.23,0000 0000 0000 0000 000000
2015-05-05 09:46:40,0.07,0.61,0.00,23.75,27.50,30.27,4.81,26.64,1033.20,2033.05,3166.02,3142.08,3413.00,349.37,351.83,21.26,0000 0000 0000 0000 000000
2015-05-05 09:51:41,0.07,0.61,0.00,23.68,27.49,30.22,4.83,26.66,1033.16,2033.12,3165.13,3141.85,3412.61,350.13,352.67,21.29,0000 0000 0000 0000 000000
2015-05-05 09:56:43,0.06,0.62,0.00,23.64,27.47,30.22,4.84,26.90,1032.96,2033.16,3164.67,3141.14,3412.02,350.37,352.66,21.32,0000 0000 0000 0000 000000
2015-05-05 10:01:44,0.07,0.62,0.00,23.59,27.45,30.20,4.93,26.64,1032.96,2033.46,3164.02,3141.00,3411.96,350.98,353.41,21.34,0000 0000 0000 0000 000000
2015-05-05 10:06:45,0.10,0.62,0.00,23.56,27.45,30.18,4.84,26.65,1032.86,2033.65,3163.48,3140.77,3411.28,350.25,352.83,21.37,0000 0000 0000 0000 000000
2015-05-05 10:11:47,0.07,0.62,0.00,23.55,27.42,30.18,4.80,26.63,1032.77,2033.86,3162.83,3140.05,3410.99,349.74,352.57,21.40,0000 0000 0000 0000 000000
2015-05-05 10:16:48,0.05,0.63,0.00,23.52,27.42,30.16,4.75,26.61,1032.74,2033.95,3161.99,3139.90,3410.39,349.80,352.66,21.43,0000 0000 0000 0000 000000
2015-05-05 10:21:49,0.08,0.63,0.00,23.50,27.40,30.17,4.98,26.74,1032.74,2033.97,3160.99,3139.09,3409.89,350.05,352.59,21.46,0000 0000 0000 0000 000000
2015-05-05 10:26:51,0.10,0.63,0.00,23.48,27.39,30.14,4.92,26.77,1032.73,2033.98,3159.77,3138.49,3409.05,350.46,353.00,21.49,0000 0000 0000 0000 000000
2015-05-05 10:31:52,0.08,0.63,0.00,23.46,27.37,30.11,4.75,26.63,1032.73,2033.99,3158.45,3137.86,3408.31,349.19,352.16,21.52,0000 0000 0000 0000 000000
2015-05-05 10:36:53,0.09,0.64,0.00,23.45,27.36,30.12,4.89,26.74,1032.73,2033.99,3157.11,3137.05,3407.64,349.93,352.41,21.55,0000 0000 0000 0000 000000
2015-05-05 10:41:55,0.07,0.64,0.00,23.46,27.35,30.12,4.96,26.74,1032.73,2033.99,3155.99,3136.37,3406.98,350.56,353.26,21.58,0000 0000 0000 0000 000000
2015-05-05 10:46:56,0.06,0.64,0.00,23.44,27.33,30.15,4.83,26.65,1032.74,2033.99,3155.07,3135.94,3406.14,349.87,352.55,21.61,0000 0000 0000 0000 000000
2015-05-05 10:51:57,0.05,0.64,0.00,23.42,27.32,30.11,4.83,26.66,1032.73,2034.00,3154.58,3135.26,3405.98,349.86,352.71,21.64,0000 0000 0000 0000 000000
2015-05-05 10:56:58,0.03,0.64,0.00,23.42,27.31,30.13,4.80,26.68,1032.73,2034.00,3153.98,3135.01,3405.43,350.02,352.81,21.67,0000 0000 0000 0000 000000
2015-05-05 11:01:59,0.03,0.64,0.00,23.42,27.30,30.13,4.82,26.68,1032.71,2034.01,3153.14,3134.98,3405.01,349.77,352.48,21.70,0000 0000 0000 0000 000000
2015-05-05 11:07:01,0.02,0.65,0.00,23.42,27.29,30.09,4.82,26.73,1032.67,2034.03,3153.00,3134.69,3404.95,350.00,352.52,21.73,0000 0000 0000 0000 000000
2015-05-05 11:12:02,0.07,0.65,0.00,23.42,27.27,30.13,4.84,26.77,1032.55,2034.03,3152.45,3134.07,3404.21,350.36,352.84,21.75,0000 0000 0000 0000 000000
2015-05-05 11:17:03,0.01,0.65,0.00,23.41,27.27,30.08,4.81,26.66,1032.58,2034.05,3151.97,3133.99,3404.00,349.79,352.46,21.78,0000 0000 0000 0000 000000
2015-05-05 11:22:04,0.05,0.65,0.00,23.40,27.26,30.12,4.78,26.69,1032.54,2034.12,3151.19,3133.69,3403.94,349.20,352.27,21.81,0000 0000 0000 0000 000000
2015-05-05 11:27:05,0.07,0.65,0.00,23.40,27.25,30.09,4.75,26.77,1032.38,2034.18,3150.98,3133.09,3403.34,349.35,351.88,21.84,0000 0000 0000 0000 000000
2015-05-05 11:32:06,0.05,0.65,0.00,23.39,27.25,30.06,4.88,26.74,1032.30,2034.34,3150.35,3133.01,3403.02,350.30,352.83,21.87,0000 0000 0000 0000 000000
2015-05-05 11:37:07,0.02,0.65,0.00,23.39,27.23,30.11,4.91,26.75,1032.27,2034.47,3149.97,3132.94,3402.96,350.65,353.26,21.90,0000 0000 0000 0000 000000
2015-05-05 11:42:09,0.10,0.66,0.00,23.39,27.22,30.09,4.82,26.70,1032.26,2034.76,3149.57,3132.65,3402.74,350.10,353.00,21.93,0000 0000 0000 0000 000000
2015-05-05 11:47:10,0.04,0.66,0.00,23.39,27.22,30.09,4.93,26.72,1032.24,2034.81,3149.02,3132.07,3402.08,350.08,352.63,21.96,0000 0000 0000 0000 000000
2015-05-05 11:52:12,0.04,0.66,0.00,23.37,27.22,30.08,4.80,26.68,1032.24,2034.95,3148.70,3132.00,3402.00,349.60,352.08,21.99,0000 0000 0000 0000 000000
2015-05-05 11:57:13,0.02,0.66,0.00,23.37,27.21,30.09,4.92,26.70,1032.24,2034.94,3148.04,3131.93,3401.83,350.35,352.95,22.02,0000 0000 0000 0000 000000
2015-05-05 12:02:14,0.06,0.66,0.00,23.37,27.20,30.07,4.87,26.63,1032.24,2034.97,3147.76,3131.31,3401.15,350.49,353.04,22.05,0000 0000 0000 0000 000000
2015-05-05 12:07:16,0.03,0.66,0.00,23.36,27.20,30.06,4.79,26.63,1032.23,2034.97,3147.04,3131.01,3401.00,350.46,352.99,22.08,0000 0000 0000 0000 000000
2015-05-05 12:12:17,0.02,0.66,0.00,23.36,27.20,30.07,4.84,26.68,1032.15,2034.97,3146.68,3130.97,3400.90,349.84,352.45,22.11,0000 0000 0000 0000 000000
2015-05-05 12:17:18,0.06,0.67,0.00,23.36,27.20,30.06,4.78,26.69,1032.07,2034.98,3146.02,3130.42,3400.19,350.04,352.41,22.14,0000 0000 0000 0000 000000
2015-05-05 12:22:19,0.03,0.67,0.00,23.37,27.20,30.05,4.92,26.71,1031.92,2034.98,3145.49,3130.02,3400.00,350.34,352.73,22.16,0000 0000 0000 0000 000000
2015-05-05 12:27:21,0.01,0.67,0.00,23.35,27.19,30.08,4.87,26.64,1031.78,2034.99,3144.99,3129.98,3399.88,350.31,352.78,22.19,0000 0000 0000 0000 000000
2015-05-05 12:32:22,0.05,0.67,0.00,23.35,27.19,30.03,4.82,26.66,1031.77,2034.99,3144.54,3129.77,3399.30,349.85,352.23,22.22,0000 0000 0000 0000 000000
2015-05-05 12:37:23,0.03,0.67,0.00,23.34,27.17,30.06,4.86,26.80,1031.77,2034.99,3144.00,3129.11,3399.01,349.62,352.20,22.25,0000 0000 0000 0000 000000
2015-05-05 12:42:25,0.02,0.67,0.00,23.32,27.17,30.05,4.86,26.78,1031.77,2034.99,3143.61,3129.00,3398.93,349.85,352.38,22.28,0000 0000 0000 0000 000000
2015-05-05 12:47:26,0.03,0.67,0.00,23.33,27.17,30.05,4.77,26.63,1031.76,2034.99,3143.03,3128.96,3398.34,349.66,352.29,22.31,0000 0000 0000 0000 000000
2015-05-05 12:52:27,0.05,0.67,0.00,23.33,27.17,30.05,4.78,26.68,1031.77,2034.99,3142.74,3128.28,3398.01,350.08,352.75,22.34,0000 0000 0000 0000 000000
2015-05-05 12:57:29,0.02,0.67,0.00,23.31,27.17,30.05,4.81,26.65,1031.76,2035.00,3142.08,3128.02,3397.97,349.87,352.32,22.37,0000 0000 0000 0000 000000
2015-05-05 13:02:30,0.02,0.67,0.00,23.30,27.17,30.05,4.84,26.68,1031.75,2035.00,3141.88,3128.00,3397.42,350.05,352.62,22.40,0000 0000 0000 0000 000000